Weather History for Akron, OH

Change the Weather History Date:

Tuesday, September 3, 2013

  Actual Average (KCAK) Record (KCAK)
Temperature  
Mean Temperature 60 °F 68 °F  
Max Temperature 64 °F 78 °F 99 °F (1953)
Min Temperature 54 °F 58 °F 41 °F (1946)
Degree Days  
Heating Degree Days 6 1  
Month to date heating degree days 3  
Since 1 July heating degree days 23  
Cooling Degree Days 0 4  
Month to date cooling degree days 12  
Year to date cooling degree days 594  
Growing Degree Days 10 (Base 50)    
Moisture  
Dew Point 55 °F    
Average Humidity 78    
Maximum Humidity 93    
Minimum Humidity 65    
Precipitation  
Precipitation 0.00 in 0.12 in 3.70 in (1988)
Month to date precipitation 0.36  
Year to date precipitation 27.56  
Snow  
Snow 0.00 in 0.00 in - ()
Month to date snowfall 0.0  
Since 1 July snowfall 0.0  
Since 1 September snowfall 0.0  
Snow Depth -    
Sea Level Pressure  
Sea Level Pressure 29.97 in    
Wind  
Wind Speed 5 mph (WNW)    
Max Wind Speed 13 mph    
Max Gust Speed 18 mph    
Visibility 10 miles    
Events      
T = Trace of Precipitation, MM = Missing Value Source: NWS Daily Summary

Daily Weather History Graph

Daily Weather History Graph

Search for Another Location

Airport:

Trip Planner

Search our weather history database for the weather conditions in past years. The results will help you decide how hot, cold, wet, or windy it might be!

Date:

Astronomy

Sep. 03, 2013 Rise Set
Actual Time 6:54 AM EDT 7:54 PM EDT
Civil Twilight 6:26 AM EDT 8:22 PM EDT
Nautical Twilight 5:53 AM EDT 8:56 PM EDT
Astronomical Twilight 5:18 AM EDT 9:30 PM EDT
Moon 5:06 AM EDT (9/3) 6:41 PM EDT (9/3)
Length of Visible Light 13h 56m
Length of Day
13h 00m
Waning Crescent, 3% of the Moon is Illuminated
Sep 3
Waning Crescent
Sep 5
New
Sep 12
First Quarter
Sep 19
Full
Sep 26
Last Quarter

Hourly Weather History & Observations

Time (EDT) Temp. Dew Point Humidity Pressure Visibility Wind Dir Wind Speed Gust Speed Precip Events Conditions
12:54 AM 64.0 °F 61.0 °F 90% 29.87 in 10.0 mi Calm Calm - N/A   Mostly Cloudy
1:54 AM 63.0 °F 60.1 °F 90% 29.87 in 10.0 mi Calm Calm - N/A   Mostly Cloudy
2:33 AM 64.4 °F 59.0 °F 83% 29.89 in 10.0 mi NW 4.6 mph - N/A   Mostly Cloudy
2:54 AM 64.0 °F 59.0 °F 84% 29.87 in 10.0 mi NW 3.5 mph - N/A   Overcast
3:54 AM 63.0 °F 57.9 °F 84% 29.88 in 10.0 mi North 5.8 mph - N/A   Overcast
4:05 AM 62.6 °F 57.2 °F 82% 29.89 in 10.0 mi North 5.8 mph - N/A   Overcast
4:54 AM 61.0 °F 55.9 °F 83% 29.88 in 10.0 mi NW 5.8 mph - N/A   Scattered Clouds
5:54 AM 60.1 °F 55.0 °F 83% 29.89 in 10.0 mi NW 4.6 mph - N/A   Mostly Cloudy
6:54 AM 61.0 °F 55.0 °F 81% 29.92 in 10.0 mi NW 4.6 mph - N/A   Overcast
7:54 AM 62.1 °F 54.0 °F 75% 29.94 in 10.0 mi WNW 5.8 mph - N/A   Overcast
8:54 AM 62.1 °F 55.0 °F 78% 29.96 in 10.0 mi NW 9.2 mph - N/A   Mostly Cloudy
9:54 AM 62.1 °F 53.1 °F 72% 29.98 in 10.0 mi NW 9.2 mph - N/A   Overcast
10:54 AM 62.1 °F 51.1 °F 67% 29.99 in 10.0 mi WNW 12.7 mph - N/A   Overcast
11:54 AM 63.0 °F 51.1 °F 65% 30.00 in 10.0 mi WNW 12.7 mph 18.4 mph N/A   Overcast
12:02 PM 62.6 °F 51.8 °F 68% 30.01 in 10.0 mi NW 10.4 mph 16.1 mph N/A   Overcast
12:54 PM 63.0 °F 53.1 °F 70% 30.00 in 10.0 mi WNW 10.4 mph - N/A   Overcast
1:54 PM 63.0 °F 53.1 °F 70% 30.01 in 10.0 mi WNW 10.4 mph - N/A   Overcast
2:33 PM 62.6 °F 53.6 °F 72% 30.01 in 10.0 mi WNW 10.4 mph - N/A   Overcast
2:54 PM 63.0 °F 54.0 °F 72% 30.00 in 10.0 mi West 6.9 mph - N/A   Overcast
3:25 PM 62.6 °F 53.6 °F 72% 30.01 in 10.0 mi West 8.1 mph - N/A   Overcast
3:54 PM 63.0 °F 55.0 °F 75% 30.00 in 10.0 mi West 9.2 mph - N/A   Overcast
4:31 PM 62.6 °F 53.6 °F 72% 30.02 in 10.0 mi West 6.9 mph - N/A   Overcast
4:54 PM 63.0 °F 55.0 °F 75% 30.01 in 10.0 mi West 6.9 mph - N/A   Overcast
5:54 PM 64.0 °F 55.0 °F 73% 30.01 in 10.0 mi West 6.9 mph - N/A   Overcast
6:18 PM 62.6 °F 55.4 °F 77% 30.02 in 10.0 mi West 6.9 mph - N/A   Overcast
6:30 PM 62.6 °F 55.4 °F 77% 30.02 in 10.0 mi West 6.9 mph - N/A   Overcast
6:54 PM 63.0 °F 55.0 °F 75% 30.01 in 10.0 mi West 5.8 mph - N/A   Overcast
7:54 PM 62.1 °F 55.0 °F 78% 30.02 in 10.0 mi West 5.8 mph - N/A   Mostly Cloudy
8:54 PM 57.9 °F 54.0 °F 87% 30.04 in 10.0 mi SW 3.5 mph - N/A   Clear
9:54 PM 57.9 °F 55.0 °F 90% 30.05 in 10.0 mi South 3.5 mph - N/A   Clear
10:54 PM 55.9 °F 54.0 °F 93% 30.05 in 8.0 mi Calm Calm - N/A   Clear
11:54 PM 54.0 °F 52.0 °F 93% 30.06 in 7.0 mi Calm Calm - N/A   Clear